Regional Weather Roundup
Issued by NWS

Home | Current Version | Previous Version | Graphics & Text | Print | Product List | Glossary On
Versions: 1 2 3 4 5 6 7 8 9 10 11 12 13 14 15 16 17 18 19 20 21 22 23 24 25 26 27 28 29 30 31 32 33 34 35 36 37 38 39 40 41 42 43 44 45 46 47 48 49 50
763
ASUS43 KMPX 260610
RWRMN
WEATHER ROUNDUP FOR MINNESOTA
NATIONAL WEATHER SERVICE TWIN CITIES/CHANHASSEN MN
100 AM CDT MON JUN 26 2017


NOTE: "FAIR" INDICATES FEW OR NO CLOUDS BELOW 12,000 FEET WITH NO
SIGNIFICANT WEATHER AND/OR OBSTRUCTIONS TO VISIBILITY. N/A MEANS
CURRENT SKY AND/OR WEATHER CONDITIONS ARE NOT AVAILABLE.

MNZ060>063-068>070-260700-
   Twin Cities Metro

CITY           SKY/WX    TMP DP  RH WIND       PRES   REMARKS
TWIN CITIES    PTCLDY    57  43  59 N5        30.14R
6HR MIN TEMP:  56; 6HR MAX TEMP:  68;

ST PAUL        CLEAR     55  44  66 NW6       30.14S
CRYSTAL        PTCLDY    56  41  57 W3        30.13R
BLAINE         PTCLDY    54  45  71 CALM      30.13S
LAKEVILLE      CLEAR     52  46  82 NW3       30.14R
EDEN PRAIRIE   PTCLDY    57  47  69 N6        30.13R
6HR MIN TEMP:  56; 6HR MAX TEMP:  68;

SOUTH ST PAUL  CLEAR     56  42  60 CALM      30.13S
LAKE ELMO      FAIR      52  45  76 CALM      30.14S
$$
MNZ001>005-007-008-013>017-022>024-027-028-260700-
   Northwest Minnesota

CITY           SKY/WX    TMP DP  RH WIND       PRES   REMARKS
BEMIDJI        CLEAR     43  42  95 W3        30.17S
HALLOCK        CLEAR     45  43  93 CALM      30.20S
ROSEAU         CLEAR     48  45  87 W7        30.18S
WARROAD        CLEAR     46  43  87 W6        30.17S
THIEF RVR FALL CLEAR     46  43  89 W6        30.20S
CROOKSTON      CLEAR     43  39  87 CALM      30.21S
FOSSTON        CLEAR     43  41  93 CALM      30.20S
DETROIT LAKES  CLEAR     50  45  81 NW5       30.20S
MOORHEAD       CLEAR     46  39  76 CALM      30.21S
PARK RAPIDS    CLEAR     45  39  79 NW5       30.17S
MAHNOMEN       FAIR      44  42  91 W5        30.19S
$$
MNZ006-009>011-018-025>026-260700-
   North Central Minnesota

CITY           SKY/WX    TMP DP  RH WIND       PRES   REMARKS
BAUDETTE       CLEAR     46  44  93 W6        30.15S
FLAG ISLAND    CLEAR     52  46  82 NW10      30.14S
INTL FALLS     PTCLDY    43  41  93 NW3       30.12F
6HR MIN TEMP:  43; 6HR MAX TEMP:  56; 6HR PCP:  0.04;

WASKISH        CLEAR     48  46  93 NW8       30.16S
BIG FORK       CLEAR     43  41  93 CALM      30.14S
LONGVILLE      CLEAR     45  43  93 CALM      30.15S
GRAND RAPIDS   FOG       45  45 100 CALM      30.15S VSB 1
CRANE LAKE     MOCLDY    39  39 100 CALM      30.13S
ORR            CLOUDY    46  45  93 NW3       30.10S
COOK           CLOUDY    45  43  93 CALM      30.12S
WALKER         FAIR      44  42  91 NW5       30.16S
$$
MNZ012-019>021-037-260700-
   Northeast Minnesota

CITY           SKY/WX    TMP DP  RH WIND       PRES   REMARKS
DULUTH         CLEAR     43  42  97 NW5       30.10S
6HR MIN TEMP:  43; 6HR MAX TEMP:  56;

ELY            LGT RAIN  46  45  93 CALM      30.10F
HIBBING        PTCLDY    37  37 100 CALM      30.12S FOG
EVELETH        PTCLDY    46  42  86 NW6       30.12S
DULUTH HARBOR  CLEAR     52  45  76 NW6       30.12S
TWO HARBORS    CLEAR     46  43  87 CALM      30.08S
SILVER BAY     CLOUDY    48  45  87 N3        30.07S
GRAND MARAIS     N/A     49  46  90 N13G23    30.03F
G MARAIS ARPRT RAIN      43  39  87 N12G17    30.05F
$$
MNZ029>031-032-039>041-046>048-054>057-064-260700-
   West Central Minnesota

CITY           SKY/WX    TMP DP  RH WIND       PRES   REMARKS
FERGUS FALLS   CLEAR     52  43  71 N3        30.18S
WHEATON        PTCLDY    52  46  82 NW3       30.22S
MORRIS         PTCLDY    52  50  93 NW6       30.19R
ALEXANDRIA     CLEAR     52  44  74 N5        30.19R
ELBOW LAKE     FAIR      51  46  83 W3        30.20R
WADENA         CLEAR     46  41  81 NW3       30.18R
GLENWOOD       CLEAR     50  46  87 NW6       30.19R
APPLETON       CLEAR     48  45  87 W3        30.19R
BENSON         PTCLDY    48  46  93 N5        30.20R
ORTONVILLE     CLEAR     54  46  76 NW5       30.19S
MADISON        CLEAR     54  48  82 W6        30.19S
WILLMAR        FAIR      54  48  82 W5        30.19R
$$
MNZ033>034-036-042>043-049>051-058-059-260700-
   Central Minnesota

CITY           SKY/WX    TMP DP  RH WIND       PRES   REMARKS
ST CLOUD       CLEAR     46  43  89 NW3       30.15S
6HR MIN TEMP:  46; 6HR MAX TEMP:  65;

SAUK CENTRE    FAIR      47  42  83 NW5       30.18R
PAYNESVILLE    CLEAR     48  46  92 W3        30.18R
AITKIN         CLEAR     45  43  93 CALM      30.13S
PINE RIVER     CLEAR     50  45  81 NW3       30.19R
BRAINERD       CLEAR     49  43  80 N7        30.16R
STAPLES        CLEAR     46  41  81 NW6       30.17S
LONG PRAIRIE   FAIR      46  43  87 CALM      30.18R
LITTLE FALLS   CLEAR     43  39  87 CALM      30.16S
LITCHFIELD     PTCLDY    55  50  82 NW6       30.17R
BUFFALO        CLEAR     54  44  68 CALM      30.16S
MAPLE LAKE     CLEAR     50  47  88 CALM      30.16S
HUTCHINSON     PTCLDY    52  49  89 W5        30.17S
$$
MNZ037-044-045-052-053-260700-
   East Central Minnesota

CITY           SKY/WX    TMP DP  RH WIND       PRES   REMARKS
PRINCETON      CLEAR     45  43  93 CALM      30.15R
MORA           CLEAR     45  43  93 CALM      30.15S
CAMBRIDGE      CLEAR     48  39  71 CALM      30.12S
RUSH CITY      MOCLDY    45  43  93 CALM      30.13S
MOOSE LAKE     CLEAR     45  41  87 CALM      30.11S
HINCKLEY       FAIR      45  43  93 CALM      30.13S
CLOQUET        CLEAR     43  39  87 NW5       30.12S
MCGREGOR       CLEAR     45  43  93 NW3       30.14S
$$
MNZ071>073-080-081-089-090-097-098-260700-
   Southwest Minnesota

CITY           SKY/WX    TMP DP  RH WIND       PRES   REMARKS
MONTEVIDEO     CLEAR     52  45  76 NW5       30.19R
GRANITE FALLS  CLEAR     50  47  88 W6        30.20R
CANBY          CLEAR     51  47  87 CALM      30.21S
MARSHALL       PTCLDY    51  47  86 W7        30.20R
REDWOOD FALLS  PTCLDY    54  47  77 W5        30.18R
OLIVIA         CLEAR     52  48  87 CALM      30.17R
PIPESTONE      CLOUDY    55  52  88 SW6       30.21F
WINDOM         CLOUDY    55  48  76 W6        30.19S
WORTHINGTON    MOCLDY    54  51  90 W7        30.22F
JACKSON        CLOUDY    54  50  87 CALM      30.21R
TRACY          CLOUDY    56  49  78 W5        30.20R
SLAYTON        CLOUDY    55  50  82 W5        30.21R
$$
MNZ065>067-074>077-082>085-091>093-260700-
   South Central Minnesota

CITY           SKY/WX    TMP DP  RH WIND       PRES   REMARKS
MANKATO        MOCLDY    55  48  77 W7        30.16S
NEW ULM        MOCLDY    52  46  82 W6        30.16S
ST JAMES       CLOUDY    54  46  76 W5        30.18S
FAIRMONT       CLOUDY    56  48  74 W7        30.18S
GLENCOE        CLEAR     55  50  81 W7        30.15S
FARIBAULT      PTCLDY    55  46  71 W7        30.14S
OWATONNA       PTCLDY    54  46  76 W5        30.14F
WASECA         MOCLDY    52  45  76 W5        30.16S
ALBERT LEA     CLEAR     54  46  76 CALM      30.16S
$$
MNZ078>079-086>088-094>096-260700-
   Southeast Minnesota

CITY           SKY/WX    TMP DP  RH WIND       PRES   REMARKS
ROCHESTER      CLEAR     51  45  79 W9        30.14S
6HR MIN TEMP:  51; 6HR MAX TEMP:  66;

RED WING       CLEAR     48  45  87 CALM      30.11S
STANTON        PTCLDY    54  46  74 W3        30.12S
DODGE CENTER   PTCLDY    50  45  81 W7        30.14S
WINONA         CLEAR     54  50  87 CALM      30.12S
AUSTIN         PTCLDY    54  43  66 W3        30.14S
PRESTON        PTCLDY    52  42  68 W8        30.14S
$$
ABBREVIATIONS USED IN REMARKS
   TC - TEMPERATURES IN CELSIUS
  WCI - WIND CHILL INDEX
   HX - HEAT INDEX
  VSB - VISIBILITY
$$




USA.gov is the U.S. government's official web portal to all federal, state and local government web resources and services.